Time,TemperatureF,DewpointF,PressureIn,WindDirection,WindDirectionDegrees,WindSpeedMPH,WindSpeedGustMPH,Humidity,HourlyPrecipIn,Conditions,Clouds,dailyrainin,SoftwareType,DateUTC
2013-01-28 00:00:00,32.9,32.4,29.74,ESE,103,0.0,0.0,98,0.00,,,0.00,Wunderground v.1.15,2013-01-28 06:00:00,
2013-01-28 00:06:00,32.9,32.4,29.74,ESE,103,0.0,1.0,98,0.00,,,0.00,Wunderground v.1.15,2013-01-28 06:06:00,
2013-01-28 00:12:00,32.9,32.4,29.74,ESE,103,0.0,1.0,98,0.00,,,0.00,Wunderground v.1.15,2013-01-28 06:12:00,
2013-01-28 00:18:00,32.9,32.4,29.73,ESE,103,0.0,1.0,98,0.00,,,0.00,Wunderground v.1.15,2013-01-28 06:18:00,
2013-01-28 00:24:00,32.9,32.4,29.74,ESE,103,0.0,1.0,98,0.00,,,0.00,Wunderground v.1.15,2013-01-28 06:24:00,
2013-01-28 00:30:00,32.9,32.4,29.74,ESE,103,0.0,1.0,98,0.00,,,0.00,Wunderground v.1.15,2013-01-28 06:30:00,
2013-01-28 00:36:00,32.9,32.4,29.74,ESE,103,0.0,1.0,98,0.00,,,0.00,Wunderground v.1.15,2013-01-28 06:36:00,
2013-01-28 00:42:00,32.9,32.4,29.74,ESE,103,0.0,1.0,98,0.00,,,0.00,Wunderground v.1.15,2013-01-28 06:42:00,
2013-01-28 00:48:00,33.0,32.5,29.74,ESE,103,0.0,1.0,98,0.00,,,0.00,Wunderground v.1.15,2013-01-28 06:48:00,
2013-01-28 00:54:00,33.0,32.5,29.74,ESE,103,0.0,1.0,98,0.00,,,0.00,Wunderground v.1.15,2013-01-28 06:54:00,
2013-01-28 01:00:00,33.1,32.6,29.74,ESE,103,0.0,1.0,98,0.00,,,0.00,Wunderground v.1.15,2013-01-28 07:00:00,
2013-01-28 01:06:00,33.1,32.6,29.74,ESE,103,0.0,1.0,98,0.00,,,0.00,Wunderground v.1.15,2013-01-28 07:06:00,
2013-01-28 01:12:00,33.0,32.5,29.74,ESE,103,0.0,1.0,98,0.00,,,0.00,Wunderground v.1.15,2013-01-28 07:12:00,
2013-01-28 01:18:00,33.0,32.5,29.74,ESE,103,0.0,1.0,98,0.00,,,0.00,Wunderground v.1.15,2013-01-28 07:18:00,
2013-01-28 01:24:00,33.0,32.5,29.74,ESE,103,0.0,1.0,98,0.00,,,0.00,Wunderground v.1.15,2013-01-28 07:24:00,
2013-01-28 01:30:00,33.1,32.6,29.74,ESE,103,0.0,1.0,98,0.00,,,0.00,Wunderground v.1.15,2013-01-28 07:30:00,
2013-01-28 01:36:00,33.1,32.6,29.74,ESE,103,0.0,1.0,98,0.00,,,0.00,Wunderground v.1.15,2013-01-28 07:36:00,
2013-01-28 01:42:00,33.1,32.6,29.73,ESE,103,0.0,1.0,98,0.00,,,0.00,Wunderground v.1.15,2013-01-28 07:42:00,
2013-01-28 01:48:00,33.1,32.6,29.74,ESE,103,0.0,1.0,98,0.00,,,0.00,Wunderground v.1.15,2013-01-28 07:48:00,
2013-01-28 01:54:00,33.2,32.7,29.74,ESE,103,0.0,1.0,98,0.00,,,0.00,Wunderground v.1.15,2013-01-28 07:54:00,
2013-01-28 02:00:00,33.2,32.7,29.74,ESE,103,0.0,1.0,98,0.00,,,0.00,Wunderground v.1.15,2013-01-28 08:00:00,
2013-01-28 02:06:00,33.2,32.7,29.74,ESE,103,0.0,1.0,98,0.00,,,0.00,Wunderground v.1.15,2013-01-28 08:06:00,
2013-01-28 02:12:00,33.2,32.7,29.74,ESE,103,0.0,1.0,98,0.00,,,0.00,Wunderground v.1.15,2013-01-28 08:12:00,
2013-01-28 02:18:00,33.2,32.7,29.74,ESE,103,0.0,1.0,98,0.00,,,0.00,Wunderground v.1.15,2013-01-28 08:18:00,
2013-01-28 02:24:00,33.2,32.7,29.75,ESE,103,0.0,1.0,98,0.00,,,0.00,Wunderground v.1.15,2013-01-28 08:24:00,
2013-01-28 02:30:00,33.2,32.7,29.75,ESE,103,0.0,1.0,98,0.00,,,0.00,Wunderground v.1.15,2013-01-28 08:30:00,
2013-01-28 02:36:00,33.1,32.6,29.75,ESE,103,0.0,1.0,98,0.00,,,0.00,Wunderground v.1.15,2013-01-28 08:36:00,
2013-01-28 02:42:00,33.2,32.7,29.75,ESE,103,0.0,1.0,98,0.00,,,0.00,Wunderground v.1.15,2013-01-28 08:42:00,
2013-01-28 02:48:00,33.1,32.6,29.76,ESE,105,0.0,1.0,98,0.00,,,0.00,Wunderground v.1.15,2013-01-28 08:48:00,
2013-01-28 02:54:00,33.1,32.6,29.76,ESE,103,0.0,1.0,98,0.00,,,0.00,Wunderground v.1.15,2013-01-28 08:54:00,
2013-01-28 03:00:00,33.0,32.5,29.76,ESE,103,0.0,1.0,98,0.00,,,0.00,Wunderground v.1.15,2013-01-28 09:00:00,
2013-01-28 03:06:00,33.0,32.5,29.76,ESE,103,0.0,1.0,98,0.00,,,0.00,Wunderground v.1.15,2013-01-28 09:06:00,
2013-01-28 03:12:00,33.1,32.6,29.77,NNW,345,0.0,1.0,98,0.00,,,0.00,Wunderground v.1.15,2013-01-28 09:12:00,
2013-01-28 03:18:00,33.2,32.7,29.77,WNW,301,0.0,1.0,98,0.00,,,0.00,Wunderground v.1.15,2013-01-28 09:18:00,
2013-01-28 03:24:00,33.4,32.9,29.77,WSW,245,0.0,1.0,98,0.00,,,0.00,Wunderground v.1.15,2013-01-28 09:24:00,
2013-01-28 03:30:00,33.6,33.1,29.77,NNW,329,1.0,1.0,98,0.00,,,0.00,Wunderground v.1.15,2013-01-28 09:30:00,
2013-01-28 03:36:00,33.9,33.4,29.77,NW,311,2.0,4.0,98,0.00,,,0.00,Wunderground v.1.15,2013-01-28 09:36:00,
2013-01-28 03:42:00,33.9,33.4,29.77,NW,315,1.0,2.0,98,0.00,,,0.00,Wunderground v.1.15,2013-01-28 09:42:00,
2013-01-28 03:48:00,33.9,33.4,29.78,NW,323,1.0,2.0,98,0.00,,,0.00,Wunderground v.1.15,2013-01-28 09:48:00,
2013-01-28 03:54:00,33.8,33.3,29.78,NW,309,2.0,5.0,98,0.00,,,0.00,Wunderground v.1.15,2013-01-28 09:54:00,
2013-01-28 04:00:00,33.8,33.3,29.78,NW,316,2.0,2.0,98,0.00,,,0.00,Wunderground v.1.15,2013-01-28 10:00:00,
2013-01-28 04:06:00,33.7,33.2,29.78,NW,319,2.0,2.0,98,0.00,,,0.00,Wunderground v.1.15,2013-01-28 10:06:00,
2013-01-28 04:12:00,33.7,33.2,29.79,NW,315,1.0,1.0,98,0.00,,,0.00,Wunderground v.1.15,2013-01-28 10:12:00,
2013-01-28 04:18:00,33.6,33.1,29.79,WNW,297,1.0,2.0,98,0.00,,,0.00,Wunderground v.1.15,2013-01-28 10:18:00,
2013-01-28 04:24:00,33.5,33.0,29.79,NW,312,1.0,2.0,98,0.00,,,0.00,Wunderground v.1.15,2013-01-28 10:24:00,
2013-01-28 04:30:00,33.4,32.9,29.79,NW,326,1.0,2.0,98,0.00,,,0.00,Wunderground v.1.15,2013-01-28 10:30:00,
2013-01-28 04:36:00,33.3,32.8,29.80,NW,307,2.0,3.0,98,0.00,,,0.01,Wunderground v.1.15,2013-01-28 10:36:00,
2013-01-28 04:42:00,33.2,32.7,29.80,NW,312,3.0,4.0,98,0.00,,,0.01,Wunderground v.1.15,2013-01-28 10:42:00,
2013-01-28 04:48:00,33.1,32.6,29.80,NW,311,3.0,4.0,98,0.00,,,0.01,Wunderground v.1.15,2013-01-28 10:48:00,
2013-01-28 04:54:00,33.0,32.5,29.80,NW,314,2.0,3.0,98,0.00,,,0.01,Wunderground v.1.15,2013-01-28 10:54:00,
2013-01-28 05:00:00,32.9,32.4,29.80,WNW,286,3.0,3.0,98,0.00,,,0.01,Wunderground v.1.15,2013-01-28 11:00:00,
2013-01-28 05:06:00,32.9,32.4,29.80,WNW,300,2.0,3.0,98,0.00,,,0.01,Wunderground v.1.15,2013-01-28 11:06:00,
2013-01-28 05:12:00,32.8,32.3,29.81,NW,314,2.0,2.0,98,0.00,,,0.01,Wunderground v.1.15,2013-01-28 11:12:00,
2013-01-28 05:18:00,32.8,32.3,29.81,NW,321,1.0,3.0,98,0.00,,,0.01,Wunderground v.1.15,2013-01-28 11:18:00,
2013-01-28 05:24:00,32.8,32.3,29.81,WNW,302,2.0,2.0,98,0.00,,,0.01,Wunderground v.1.15,2013-01-28 11:24:00,
2013-01-28 05:30:00,32.7,32.2,29.82,NW,305,2.0,2.0,98,0.00,,,0.01,Wunderground v.1.15,2013-01-28 11:30:00,
2013-01-28 05:36:00,32.7,32.2,29.82,West,279,1.0,3.0,98,0.00,,,0.01,Wunderground v.1.15,2013-01-28 11:36:00,
2013-01-28 05:42:00,32.6,32.1,29.82,WNW,287,2.0,3.0,98,0.00,,,0.01,Wunderground v.1.15,2013-01-28 11:42:00,
2013-01-28 05:48:00,32.5,32.0,29.82,NW,318,2.0,3.0,98,0.00,,,0.01,Wunderground v.1.15,2013-01-28 11:48:00,
2013-01-28 05:54:00,32.3,31.8,29.82,NW,307,2.0,4.0,98,0.00,,,0.01,Wunderground v.1.15,2013-01-28 11:54:00,
2013-01-28 06:00:00,32.2,31.7,29.82,NW,311,3.0,3.0,98,0.00,,,0.01,Wunderground v.1.15,2013-01-28 12:00:00,
2013-01-28 06:06:00,32.1,31.6,29.83,NW,322,3.0,5.0,98,0.00,,,0.01,Wunderground v.1.15,2013-01-28 12:06:00,
2013-01-28 06:12:00,32.0,31.5,29.83,WNW,298,2.0,3.0,98,0.00,,,0.01,Wunderground v.1.15,2013-01-28 12:12:00,
2013-01-28 06:18:00,32.0,31.5,29.83,West,266,2.0,3.0,98,0.00,,,0.01,Wunderground v.1.15,2013-01-28 12:18:00,
2013-01-28 06:24:00,32.0,31.5,29.83,NW,309,1.0,2.0,98,0.00,,,0.01,Wunderground v.1.15,2013-01-28 12:24:00,
2013-01-28 06:30:00,32.0,31.5,29.83,NW,304,1.0,1.0,98,0.00,,,0.01,Wunderground v.1.15,2013-01-28 12:30:00,
2013-01-28 06:36:00,31.9,31.4,29.83,NW,307,0.0,1.0,98,0.00,,,0.01,Wunderground v.1.15,2013-01-28 12:36:00,
2013-01-28 06:42:00,31.9,31.4,29.84,NW,314,0.0,1.0,98,0.00,,,0.01,Wunderground v.1.15,2013-01-28 12:42:00,
2013-01-28 06:48:00,31.9,31.4,29.84,NW,312,1.0,1.0,98,0.00,,,0.01,Wunderground v.1.15,2013-01-28 12:48:00,
2013-01-28 06:54:00,31.9,31.4,29.84,NW,323,1.0,1.0,98,0.00,,,0.01,Wunderground v.1.15,2013-01-28 12:54:00,
2013-01-28 07:00:00,31.9,31.4,29.84,NW,325,0.0,1.0,98,0.00,,,0.01,Wunderground v.1.15,2013-01-28 13:00:00,
2013-01-28 07:06:00,31.8,31.3,29.85,WNW,283,0.0,1.0,98,0.00,,,0.01,Wunderground v.1.15,2013-01-28 13:06:00,
2013-01-28 07:12:00,31.8,31.3,29.85,West,280,0.0,1.0,98,0.00,,,0.01,Wunderground v.1.15,2013-01-28 13:12:00,
2013-01-28 07:18:00,31.7,31.2,29.85,West,276,0.0,1.0,98,0.00,,,0.01,Wunderground v.1.15,2013-01-28 13:18:00,
2013-01-28 07:24:00,31.7,31.2,29.85,WNW,300,0.0,1.0,98,0.00,,,0.01,Wunderground v.1.15,2013-01-28 13:24:00,
2013-01-28 07:30:00,31.7,31.2,29.86,West,277,0.0,1.0,98,0.00,,,0.01,Wunderground v.1.15,2013-01-28 13:30:00,
2013-01-28 07:36:00,31.7,31.2,29.86,WNW,300,0.0,1.0,98,0.00,,,0.01,Wunderground v.1.15,2013-01-28 13:36:00,
2013-01-28 07:42:00,31.7,31.2,29.86,WNW,300,0.0,1.0,98,0.00,,,0.01,Wunderground v.1.15,2013-01-28 13:42:00,
2013-01-28 07:48:00,31.7,31.2,29.86,West,263,0.0,1.0,98,0.00,,,0.01,Wunderground v.1.15,2013-01-28 13:48:00,
2013-01-28 07:54:00,31.6,31.1,29.87,SSE,162,0.0,1.0,98,0.00,,,0.01,Wunderground v.1.15,2013-01-28 13:54:00,
2013-01-28 08:00:00,31.6,31.1,29.87,SSE,162,0.0,1.0,98,0.00,,,0.01,Wunderground v.1.15,2013-01-28 14:00:00,
2013-01-28 08:06:00,31.6,31.1,29.87,SSE,162,0.0,1.0,98,0.00,,,0.01,Wunderground v.1.15,2013-01-28 14:06:00,
2013-01-28 08:12:00,31.6,31.1,29.87,WSW,247,0.0,1.0,98,0.00,,,0.01,Wunderground v.1.15,2013-01-28 14:12:00,
2013-01-28 08:18:00,31.5,31.0,29.87,SW,235,0.0,1.0,98,0.00,,,0.01,Wunderground v.1.15,2013-01-28 14:18:00,
2013-01-28 08:24:00,31.6,31.1,29.87,SW,235,0.0,1.0,98,0.00,,,0.01,Wunderground v.1.15,2013-01-28 14:24:00,
2013-01-28 08:30:00,31.6,31.1,29.87,SW,235,0.0,1.0,98,0.00,,,0.01,Wunderground v.1.15,2013-01-28 14:30:00,
2013-01-28 08:36:00,31.7,31.2,29.87,WSW,242,0.0,1.0,98,0.00,,,0.01,Wunderground v.1.15,2013-01-28 14:36:00,
2013-01-28 08:42:00,31.7,31.2,29.87,WSW,242,0.0,1.0,98,0.00,,,0.01,Wunderground v.1.15,2013-01-28 14:42:00,
2013-01-28 08:48:00,31.9,31.4,29.87,WSW,242,0.0,1.0,98,0.00,,,0.01,Wunderground v.1.15,2013-01-28 14:48:00,
2013-01-28 08:54:00,31.9,31.4,29.87,SE,145,0.0,1.0,98,0.00,,,0.01,Wunderground v.1.15,2013-01-28 14:54:00,
2013-01-28 09:00:00,31.9,31.4,29.87,South,175,0.0,1.0,98,0.00,,,0.01,Wunderground v.1.15,2013-01-28 15:00:00,
2013-01-28 09:06:00,32.0,31.5,29.87,South,173,0.0,1.0,98,0.00,,,0.01,Wunderground v.1.15,2013-01-28 15:06:00,
2013-01-28 09:12:00,32.0,31.5,29.87,SSW,212,0.0,1.0,98,0.00,,,0.02,Wunderground v.1.15,2013-01-28 15:12:00,
2013-01-28 09:18:00,31.9,31.4,29.88,South,172,1.0,3.0,98,0.00,,,0.02,Wunderground v.1.15,2013-01-28 15:18:00,
2013-01-28 09:24:00,31.8,31.3,29.88,SSE,162,1.0,2.0,98,0.00,,,0.02,Wunderground v.1.15,2013-01-28 15:24:00,
2013-01-28 09:30:00,31.7,31.2,29.88,SSE,152,1.0,1.0,98,0.00,,,0.02,Wunderground v.1.15,2013-01-28 15:30:00,
2013-01-28 09:36:00,31.7,31.2,29.88,South,173,1.0,1.0,98,0.00,,,0.02,Wunderground v.1.15,2013-01-28 15:36:00,
2013-01-28 09:42:00,31.7,31.2,29.89,SSW,212,1.0,1.0,98,0.00,,,0.02,Wunderground v.1.15,2013-01-28 15:42:00,
2013-01-28 09:48:00,31.7,31.2,29.89,SSW,208,0.0,1.0,98,0.00,,,0.02,Wunderground v.1.15,2013-01-28 15:48:00,
2013-01-28 09:54:00,31.9,31.4,29.89,SSE,160,0.0,1.0,98,0.00,,,0.02,Wunderground v.1.15,2013-01-28 15:54:00,
2013-01-28 10:00:00,32.0,31.5,29.89,SW,226,0.0,1.0,98,0.00,,,0.02,Wunderground v.1.15,2013-01-28 16:00:00,
2013-01-28 10:06:00,32.0,31.5,29.89,SSW,203,1.0,2.0,98,0.00,,,0.02,Wunderground v.1.15,2013-01-28 16:06:00,
2013-01-28 10:12:00,32.0,31.5,29.88,NW,312,1.0,1.0,98,0.00,,,0.02,Wunderground v.1.15,2013-01-28 16:12:00,
2013-01-28 10:18:00,31.8,31.3,29.88,WNW,290,1.0,1.0,98,0.00,,,0.02,Wunderground v.1.15,2013-01-28 16:18:00,
2013-01-28 10:24:00,31.8,31.3,29.88,NW,314,0.0,1.0,98,0.00,,,0.02,Wunderground v.1.15,2013-01-28 16:24:00,
2013-01-28 10:30:00,32.1,31.6,29.89,NW,326,0.0,1.0,98,0.00,,,0.03,Wunderground v.1.15,2013-01-28 16:30:00,
2013-01-28 10:36:00,32.1,31.6,29.89,SE,131,0.0,1.0,98,0.00,,,0.03,Wunderground v.1.15,2013-01-28 16:36:00,
2013-01-28 10:42:00,32.1,31.6,29.88,SE,131,0.0,1.0,98,0.00,,,0.03,Wunderground v.1.15,2013-01-28 16:42:00,
2013-01-28 10:48:00,32.3,31.8,29.87,NNE,33,0.0,1.0,98,0.00,,,0.03,Wunderground v.1.15,2013-01-28 16:48:00,
2013-01-28 10:54:00,32.4,31.9,29.88,NNE,33,0.0,1.0,98,0.00,,,0.03,Wunderground v.1.15,2013-01-28 16:54:00,
2013-01-28 11:00:00,32.6,32.1,29.88,NNE,33,0.0,1.0,98,0.00,,,0.04,Wunderground v.1.15,2013-01-28 17:00:00,
2013-01-28 11:06:00,32.9,32.4,29.87,SSE,165,0.0,1.0,98,0.00,,,0.04,Wunderground v.1.15,2013-01-28 17:06:00,
2013-01-28 11:12:00,33.0,32.5,29.87,SSE,165,0.0,1.0,98,0.00,,,0.04,Wunderground v.1.15,2013-01-28 17:12:00,
2013-01-28 11:18:00,32.9,32.4,29.86,ESE,122,0.0,1.0,98,0.00,,,0.04,Wunderground v.1.15,2013-01-28 17:18:00,
2013-01-28 11:24:00,32.7,32.2,29.87,ESE,113,1.0,1.0,98,0.00,,,0.04,Wunderground v.1.15,2013-01-28 17:24:00,
2013-01-28 11:30:00,32.5,32.0,29.87,ESE,110,1.0,1.0,98,0.00,,,0.04,Wunderground v.1.15,2013-01-28 17:30:00,
2013-01-28 11:36:00,32.8,32.3,29.87,ESE,121,1.0,1.0,98,0.00,,,0.05,Wunderground v.1.15,2013-01-28 17:36:00,
2013-01-28 11:42:00,32.9,32.4,29.86,SSE,163,1.0,1.0,98,0.00,,,0.05,Wunderground v.1.15,2013-01-28 17:42:00,
2013-01-28 11:48:00,33.0,32.5,29.86,SSE,160,1.0,1.0,98,0.00,,,0.05,Wunderground v.1.15,2013-01-28 17:48:00,
2013-01-28 11:54:00,32.7,32.2,29.87,SE,141,1.0,3.0,98,0.00,,,0.05,Wunderground v.1.15,2013-01-28 17:54:00,
2013-01-28 12:00:00,32.8,32.3,29.86,SSE,155,1.0,2.0,98,0.00,,,0.05,Wunderground v.1.15,2013-01-28 18:00:00,
2013-01-28 12:06:00,32.7,32.2,29.86,SE,138,2.0,2.0,98,0.00,,,0.05,Wunderground v.1.15,2013-01-28 18:06:00,
2013-01-28 12:12:00,32.7,32.2,29.85,SE,133,2.0,2.0,98,0.00,,,0.06,Wunderground v.1.15,2013-01-28 18:12:00,
2013-01-28 12:18:00,32.9,32.4,29.85,SE,126,1.0,2.0,98,0.00,,,0.06,Wunderground v.1.15,2013-01-28 18:18:00,
2013-01-28 12:24:00,33.0,32.5,29.85,SE,139,1.0,3.0,98,0.00,,,0.06,Wunderground v.1.15,2013-01-28 18:24:00,
2013-01-28 12:30:00,33.1,32.6,29.86,SSE,162,1.0,1.0,98,0.00,,,0.06,Wunderground v.1.15,2013-01-28 18:30:00,
2013-01-28 12:36:00,33.3,32.8,29.86,NE,40,0.0,1.0,98,0.00,,,0.06,Wunderground v.1.15,2013-01-28 18:36:00,
2013-01-28 12:42:00,33.5,33.0,29.85,NE,40,0.0,1.0,98,0.00,,,0.06,Wunderground v.1.15,2013-01-28 18:42:00,
2013-01-28 12:48:00,33.6,33.1,29.84,ENE,76,0.0,1.0,98,0.00,,,0.06,Wunderground v.1.15,2013-01-28 18:48:00,
2013-01-28 12:54:00,33.5,33.0,29.84,ESE,120,1.0,2.0,98,0.00,,,0.06,Wunderground v.1.15,2013-01-28 18:54:00,
2013-01-28 13:00:00,33.3,32.8,29.83,ENE,68,2.0,2.0,98,0.00,,,0.06,Wunderground v.1.15,2013-01-28 19:00:00,
2013-01-28 13:06:00,33.4,32.9,29.83,NNE,33,2.0,2.0,98,0.00,,,0.06,Wunderground v.1.15,2013-01-28 19:06:00,
2013-01-28 13:12:00,33.5,33.0,29.83,East,94,1.0,2.0,98,0.00,,,0.06,Wunderground v.1.15,2013-01-28 19:12:00,
2013-01-28 13:18:00,33.5,33.0,29.83,ENE,60,1.0,2.0,98,0.00,,,0.06,Wunderground v.1.15,2013-01-28 19:18:00,
2013-01-28 13:24:00,33.4,32.9,29.82,ENE,60,1.0,2.0,98,0.00,,,0.06,Wunderground v.1.15,2013-01-28 19:24:00,
2013-01-28 13:30:00,33.9,33.4,29.83,SE,136,1.0,2.0,98,0.00,,,0.06,Wunderground v.1.15,2013-01-28 19:30:00,
2013-01-28 13:36:00,33.8,33.3,29.83,SE,126,1.0,3.0,98,0.00,,,0.06,Wunderground v.1.15,2013-01-28 19:36:00,
2013-01-28 13:42:00,33.7,33.2,29.82,ENE,72,2.0,2.0,98,0.00,,,0.06,Wunderground v.1.15,2013-01-28 19:42:00,
2013-01-28 13:48:00,33.7,33.2,29.83,ESE,123,1.0,2.0,98,0.00,,,0.06,Wunderground v.1.15,2013-01-28 19:48:00,
2013-01-28 13:54:00,33.8,33.3,29.82,SE,140,2.0,4.0,98,0.00,,,0.06,Wunderground v.1.15,2013-01-28 19:54:00,
2013-01-28 14:00:00,33.7,33.2,29.82,ESE,108,3.0,3.0,98,0.00,,,0.06,Wunderground v.1.15,2013-01-28 20:00:00,
2013-01-28 14:06:00,33.6,33.1,29.82,ENE,58,2.0,3.0,98,0.00,,,0.06,Wunderground v.1.15,2013-01-28 20:06:00,
2013-01-28 14:12:00,33.7,33.2,29.82,SSE,147,2.0,3.0,98,0.00,,,0.06,Wunderground v.1.15,2013-01-28 20:12:00,
2013-01-28 14:18:00,33.7,33.2,29.82,SE,131,2.0,3.0,98,0.00,,,0.06,Wunderground v.1.15,2013-01-28 20:18:00,
2013-01-28 14:24:00,33.8,33.3,29.82,East,82,2.0,3.0,98,0.00,,,0.06,Wunderground v.1.15,2013-01-28 20:24:00,
2013-01-28 14:30:00,33.9,33.4,29.82,SE,136,3.0,4.0,98,0.00,,,0.06,Wunderground v.1.15,2013-01-28 20:30:00,
2013-01-28 14:36:00,34.1,33.6,29.82,SE,132,4.0,6.0,98,0.00,,,0.06,Wunderground v.1.15,2013-01-28 20:36:00,
2013-01-28 14:42:00,34.1,33.6,29.81,ESE,110,4.0,4.0,98,0.00,,,0.06,Wunderground v.1.15,2013-01-28 20:42:00,
2013-01-28 14:48:00,34.1,33.6,29.80,ESE,110,4.0,4.0,98,0.00,,,0.06,Wunderground v.1.15,2013-01-28 20:48:00,
2013-01-28 14:54:00,34.3,33.8,29.80,SE,127,3.0,4.0,98,0.00,,,0.06,Wunderground v.1.15,2013-01-28 20:54:00,
2013-01-28 15:00:00,34.3,33.8,29.80,ESE,105,3.0,3.0,98,0.00,,,0.06,Wunderground v.1.15,2013-01-28 21:00:00,
2013-01-28 15:06:00,34.4,33.9,29.80,ESE,119,3.0,4.0,98,0.00,,,0.06,Wunderground v.1.15,2013-01-28 21:06:00,
2013-01-28 15:12:00,34.4,33.9,29.80,ESE,122,3.0,7.0,98,0.00,,,0.06,Wunderground v.1.15,2013-01-28 21:12:00,
2013-01-28 15:18:00,34.6,34.1,29.80,ESE,117,3.0,7.0,98,0.00,,,0.06,Wunderground v.1.15,2013-01-28 21:18:00,
2013-01-28 15:24:00,34.6,34.1,29.81,SE,131,3.0,6.0,98,0.00,,,0.06,Wunderground v.1.15,2013-01-28 21:24:00,
2013-01-28 15:30:00,34.8,34.3,29.81,ESE,119,3.0,3.0,98,0.00,,,0.06,Wunderground v.1.15,2013-01-28 21:30:00,
2013-01-28 15:36:00,34.9,34.4,29.80,ESE,122,3.0,3.0,98,0.00,,,0.06,Wunderground v.1.15,2013-01-28 21:36:00,
2013-01-28 15:42:00,34.9,34.4,29.80,SE,136,3.0,4.0,98,0.00,,,0.06,Wunderground v.1.15,2013-01-28 21:42:00,
2013-01-28 15:48:00,34.9,34.4,29.80,SE,124,3.0,4.0,98,0.00,,,0.06,Wunderground v.1.15,2013-01-28 21:48:00,
2013-01-28 15:54:00,35.0,34.5,29.80,SSE,150,3.0,3.0,98,0.00,,,0.06,Wunderground v.1.15,2013-01-28 21:54:00,
2013-01-28 16:00:00,35.0,34.5,29.79,SE,124,3.0,4.0,98,0.00,,,0.06,Wunderground v.1.15,2013-01-28 22:00:00,
2013-01-28 16:06:00,35.0,34.5,29.79,ESE,105,4.0,6.0,98,0.00,,,0.06,Wunderground v.1.15,2013-01-28 22:06:00,
2013-01-28 16:12:00,35.0,34.5,29.79,ESE,105,3.0,4.0,98,0.00,,,0.06,Wunderground v.1.15,2013-01-28 22:12:00,
2013-01-28 16:18:00,35.0,34.5,29.78,East,91,3.0,4.0,98,0.00,,,0.06,Wunderground v.1.15,2013-01-28 22:18:00,
2013-01-28 16:24:00,35.1,34.6,29.78,ENE,76,3.0,6.0,98,0.00,,,0.06,Wunderground v.1.15,2013-01-28 22:24:00,
2013-01-28 16:30:00,35.1,34.6,29.78,ESE,110,3.0,5.0,98,0.00,,,0.06,Wunderground v.1.15,2013-01-28 22:30:00,
2013-01-28 16:36:00,35.2,34.7,29.78,SE,124,3.0,5.0,98,0.00,,,0.06,Wunderground v.1.15,2013-01-28 22:36:00,
2013-01-28 16:42:00,35.3,34.8,29.78,East,85,3.0,4.0,98,0.00,,,0.06,Wunderground v.1.15,2013-01-28 22:42:00,
2013-01-28 16:48:00,35.4,34.9,29.78,ESE,118,4.0,7.0,98,0.00,,,0.06,Wunderground v.1.15,2013-01-28 22:48:00,
2013-01-28 16:54:00,35.4,34.9,29.78,ESE,108,4.0,6.0,98,0.00,,,0.06,Wunderground v.1.15,2013-01-28 22:54:00,
2013-01-28 17:00:00,35.5,35.0,29.77,East,91,4.0,4.0,98,0.00,,,0.06,Wunderground v.1.15,2013-01-28 23:00:00,
2013-01-28 17:06:00,35.5,35.0,29.77,ESE,113,3.0,4.0,98,0.00,,,0.06,Wunderground v.1.15,2013-01-28 23:06:00,
2013-01-28 17:12:00,35.6,35.1,29.77,ESE,122,3.0,6.0,98,0.00,,,0.06,Wunderground v.1.15,2013-01-28 23:12:00,
2013-01-28 17:18:00,35.6,35.1,29.77,ESE,103,4.0,6.0,98,0.00,,,0.06,Wunderground v.1.15,2013-01-28 23:18:00,
2013-01-28 17:24:00,35.6,35.1,29.77,ESE,108,4.0,4.0,98,0.00,,,0.06,Wunderground v.1.15,2013-01-28 23:24:00,
2013-01-28 17:30:00,35.6,35.1,29.77,SE,126,4.0,4.0,98,0.00,,,0.06,Wunderground v.1.15,2013-01-28 23:30:00,
2013-01-28 17:36:00,35.6,35.1,29.78,SE,124,3.0,4.0,98,0.00,,,0.06,Wunderground v.1.15,2013-01-28 23:36:00,
2013-01-28 17:42:00,35.6,35.1,29.77,SE,133,3.0,5.0,98,0.00,,,0.06,Wunderground v.1.15,2013-01-28 23:42:00,
2013-01-28 17:48:00,35.6,35.1,29.77,ESE,116,4.0,6.0,98,0.00,,,0.06,Wunderground v.1.15,2013-01-28 23:48:00,
2013-01-28 17:54:00,35.7,35.2,29.77,ENE,65,4.0,4.0,98,0.00,,,0.06,Wunderground v.1.15,2013-01-28 23:54:00,
2013-01-28 18:00:00,35.6,35.1,29.77,ESE,120,4.0,4.0,98,0.00,,,0.06,Wunderground v.1.15,2013-01-29 00:00:00,
2013-01-28 18:06:00,35.7,35.2,29.76,ESE,108,4.0,4.0,98,0.00,,,0.06,Wunderground v.1.15,2013-01-29 00:06:00,
2013-01-28 18:12:00,35.7,35.2,29.76,SE,134,4.0,4.0,98,0.00,,,0.06,Wunderground v.1.15,2013-01-29 00:12:00,
2013-01-28 18:18:00,35.8,35.3,29.76,ESE,110,4.0,5.0,98,0.00,,,0.06,Wunderground v.1.15,2013-01-29 00:18:00,
2013-01-28 18:24:00,35.8,35.3,29.75,ESE,110,3.0,4.0,98,0.00,,,0.06,Wunderground v.1.15,2013-01-29 00:24:00,
2013-01-28 18:30:00,35.9,35.4,29.75,East,99,3.0,3.0,98,0.00,,,0.06,Wunderground v.1.15,2013-01-29 00:30:00,
2013-01-28 18:36:00,36.0,35.7,29.75,ENE,61,3.0,3.0,99,0.00,,,0.06,Wunderground v.1.15,2013-01-29 00:36:00,
2013-01-28 18:42:00,36.1,35.8,29.75,ESE,105,3.0,4.0,99,0.00,,,0.06,Wunderground v.1.15,2013-01-29 00:42:00,
2013-01-28 18:48:00,36.2,35.9,29.75,East,91,3.0,6.0,99,0.00,,,0.06,Wunderground v.1.15,2013-01-29 00:48:00,
2013-01-28 18:54:00,36.2,35.9,29.75,SE,129,3.0,4.0,99,0.00,,,0.06,Wunderground v.1.15,2013-01-29 00:54:00,
2013-01-28 19:00:00,36.4,36.1,29.74,East,94,4.0,4.0,99,0.00,,,0.06,Wunderground v.1.15,2013-01-29 01:00:00,
2013-01-28 19:06:00,36.4,36.1,29.74,ESE,108,5.0,5.0,99,0.00,,,0.06,Wunderground v.1.15,2013-01-29 01:06:00,
2013-01-28 19:12:00,36.6,36.3,29.73,ESE,105,4.0,6.0,99,0.00,,,0.06,Wunderground v.1.15,2013-01-29 01:12:00,
2013-01-28 19:18:00,36.7,36.4,29.73,East,98,4.0,7.0,99,0.00,,,0.06,Wunderground v.1.15,2013-01-29 01:18:00,
2013-01-28 19:24:00,36.9,36.6,29.73,ESE,106,5.0,6.0,99,0.00,,,0.06,Wunderground v.1.15,2013-01-29 01:24:00,
2013-01-28 19:30:00,37.0,36.7,29.73,SE,131,5.0,5.0,99,0.00,,,0.06,Wunderground v.1.15,2013-01-29 01:30:00,
2013-01-28 19:36:00,37.1,36.8,29.72,ESE,122,5.0,5.0,99,0.00,,,0.06,Wunderground v.1.15,2013-01-29 01:36:00,
2013-01-28 19:42:00,37.3,37.0,29.71,ESE,106,5.0,9.0,99,0.00,,,0.06,Wunderground v.1.15,2013-01-29 01:42:00,
2013-01-28 19:48:00,37.4,37.1,29.71,ENE,57,5.0,9.0,99,0.00,,,0.06,Wunderground v.1.15,2013-01-29 01:48:00,
2013-01-28 19:54:00,37.5,37.2,29.71,SE,137,4.0,5.0,99,0.00,,,0.06,Wunderground v.1.15,2013-01-29 01:54:00,
2013-01-28 20:00:00,37.6,37.3,29.71,SE,134,4.0,4.0,99,0.00,,,0.06,Wunderground v.1.15,2013-01-29 02:00:00,
2013-01-28 20:06:00,37.7,37.4,29.70,ESE,108,5.0,5.0,99,0.00,,,0.06,Wunderground v.1.15,2013-01-29 02:06:00,
2013-01-28 20:12:00,37.8,37.5,29.70,ESE,112,5.0,7.0,99,0.00,,,0.06,Wunderground v.1.15,2013-01-29 02:12:00,
2013-01-28 20:18:00,37.9,37.6,29.69,SE,127,5.0,7.0,99,0.00,,,0.06,Wunderground v.1.15,2013-01-29 02:18:00,
2013-01-28 20:24:00,37.9,37.6,29.69,ESE,103,5.0,6.0,99,0.00,,,0.06,Wunderground v.1.15,2013-01-29 02:24:00,
2013-01-28 20:30:00,38.0,37.7,29.69,SE,136,5.0,5.0,99,0.00,,,0.06,Wunderground v.1.15,2013-01-29 02:30:00,
2013-01-28 20:36:00,38.1,37.8,29.69,ESE,120,5.0,6.0,99,0.00,,,0.06,Wunderground v.1.15,2013-01-29 02:36:00,
2013-01-28 20:42:00,38.1,37.8,29.68,SE,146,5.0,8.0,99,0.00,,,0.06,Wunderground v.1.15,2013-01-29 02:42:00,
2013-01-28 20:48:00,38.3,38.0,29.67,East,101,5.0,8.0,99,0.00,,,0.06,Wunderground v.1.15,2013-01-29 02:48:00,
2013-01-28 20:54:00,38.3,38.0,29.67,SE,132,6.0,7.0,99,0.00,,,0.06,Wunderground v.1.15,2013-01-29 02:54:00,
2013-01-28 21:00:00,38.4,38.1,29.67,SSE,152,5.0,6.0,99,0.00,,,0.06,Wunderground v.1.15,2013-01-29 03:00:00,
2013-01-28 21:06:00,38.6,38.3,29.66,ESE,105,6.0,6.0,99,0.00,,,0.06,Wunderground v.1.15,2013-01-29 03:06:00,
2013-01-28 21:12:00,38.6,38.3,29.65,SE,131,5.0,6.0,99,0.00,,,0.06,Wunderground v.1.15,2013-01-29 03:12:00,
2013-01-28 21:18:00,38.8,38.5,29.64,SE,136,5.0,6.0,99,0.00,,,0.06,Wunderground v.1.15,2013-01-29 03:18:00,
2013-01-28 21:24:00,38.8,38.5,29.63,ESE,119,5.0,7.0,99,0.00,,,0.06,Wunderground v.1.15,2013-01-29 03:24:00,
2013-01-28 21:30:00,38.9,38.6,29.63,ENE,75,6.0,8.0,99,0.00,,,0.06,Wunderground v.1.15,2013-01-29 03:30:00,
2013-01-28 21:36:00,38.9,38.6,29.62,SE,131,6.0,8.0,99,0.00,,,0.06,Wunderground v.1.15,2013-01-29 03:36:00,
2013-01-28 21:42:00,39.0,38.7,29.61,SE,127,6.0,6.0,99,0.00,,,0.06,Wunderground v.1.15,2013-01-29 03:42:00,
2013-01-28 21:48:00,39.0,38.7,29.61,ESE,122,6.0,7.0,99,0.00,,,0.06,Wunderground v.1.15,2013-01-29 03:48:00,
2013-01-28 21:54:00,39.1,38.8,29.62,South,176,7.0,9.0,99,0.00,,,0.07,Wunderground v.1.15,2013-01-29 03:54:00,
2013-01-28 22:00:00,38.9,38.6,29.62,South,169,8.0,8.0,99,0.00,,,0.07,Wunderground v.1.15,2013-01-29 04:00:00,
2013-01-28 22:06:00,38.9,38.6,29.61,SE,134,7.0,8.0,99,0.05,,,0.08,Wunderground v.1.15,2013-01-29 04:06:00,
2013-01-28 22:12:00,39.0,38.7,29.61,SE,126,5.0,6.0,99,0.05,,,0.08,Wunderground v.1.15,2013-01-29 04:12:00,
2013-01-28 22:18:00,39.1,38.8,29.60,SE,129,5.0,7.0,99,0.06,,,0.09,Wunderground v.1.15,2013-01-29 04:18:00,
2013-01-28 22:24:00,39.2,38.9,29.60,SE,126,4.0,4.0,99,0.06,,,0.09,Wunderground v.1.15,2013-01-29 04:24:00,
2013-01-28 22:30:00,39.3,39.0,29.60,ESE,121,3.0,6.0,99,1.05,,,0.12,Wunderground v.1.15,2013-01-29 04:30:00,
2013-01-28 22:36:00,39.6,39.3,29.59,SE,146,4.0,6.0,99,0.77,,,0.22,Wunderground v.1.15,2013-01-29 04:36:00,
2013-01-28 22:42:00,40.0,39.7,29.59,ESE,119,3.0,5.0,99,0.12,,,0.23,Wunderground v.1.15,2013-01-29 04:42:00,
2013-01-28 22:48:00,40.2,39.9,29.59,SE,141,2.0,5.0,99,0.05,,,0.23,Wunderground v.1.15,2013-01-29 04:48:00,
2013-01-28 22:54:00,40.2,39.9,29.61,NW,311,2.0,4.0,99,0.32,,,0.26,Wunderground v.1.15,2013-01-29 04:54:00,
2013-01-28 23:00:00,40.5,40.2,29.60,SE,140,2.0,2.0,99,0.08,,,0.26,Wunderground v.1.15,2013-01-29 05:00:00,
2013-01-28 23:04:00,41.3,41.0,29.59,SSW,198,2.0,2.0,99,0.05,,,0.26,Wunderground v.1.15,2013-01-29 05:04:00,
2013-01-28 23:10:00,41.6,41.3,29.61,ENE,65,2.0,2.0,99,0.00,,,0.26,Wunderground v.1.15,2013-01-29 05:10:00,
2013-01-28 23:14:00,42.2,41.9,29.59,East,101,2.0,4.0,99,0.00,,,0.26,Wunderground v.1.15,2013-01-29 05:14:00,
2013-01-28 23:20:00,42.1,41.8,29.62,West,279,2.0,2.0,99,0.00,,,0.26,Wunderground v.1.15,2013-01-29 05:20:00,
2013-01-28 23:26:00,42.5,42.2,29.59,SE,136,2.0,5.0,99,0.00,,,0.26,Wunderground v.1.15,2013-01-29 05:26:00,
2013-01-28 23:32:00,43.0,42.7,29.59,ESE,113,2.0,2.0,99,0.00,,,0.26,Wunderground v.1.15,2013-01-29 05:32:00,
2013-01-28 23:38:00,42.9,42.6,29.59,SE,131,1.0,2.0,99,0.00,,,0.26,Wunderground v.1.15,2013-01-29 05:38:00,
2013-01-28 23:44:00,42.5,42.2,29.61,NW,316,1.0,3.0,99,0.00,,,0.26,Wunderground v.1.15,2013-01-29 05:44:00,
2013-01-28 23:50:00,43.1,42.8,29.60,East,96,1.0,2.0,99,0.26,,,0.31,Wunderground v.1.15,2013-01-29 05:50:00,
2013-01-28 23:56:00,42.9,42.6,29.60,SE,129,1.0,2.0,99,0.12,,,0.33,Wunderground v.1.15,2013-01-29 05:56:00,